Погода в Орлове

Россия / Кировская область     58°32′20″N   48°53′34″E
темп.,
°C
ветер,
м/с
пор.,
м/с
влажн.,
%
обл.,
%
осадки,
мм/ч
давл.,
гПа
погр.,
м
10 мая, пн
пн1000:00+13ююв3119083 2.1 1013303
03:00+13вюв3792100 2.7 1015159
06:00+14ю3987100 0.1 1017323
09:00+15юз3678100 0.1 1019593
12:00+17зюз3472100 0.1 1021873
15:00+10ссз3590100 0.3 1024264
18:00+9с3689100 0.1 1026336
21:00+8с3692100 0.1 1027329
11 мая, вт
вт1100:00+6с37979 0.0 1028232
03:00+5ссв279711 0.0 1029181
06:00+7ссв368432 0.0 1030276
09:00+13ссв3362100 0.0 1030652
12:00+17ссв2248100 0.0 1030981
15:00+19ссв22356 0.0 10301089
18:00+17с22455 0.0 103029
21:00+11св225292 0.0 103110
12 мая, ср
ср1200:00+9св115753 0.0 103110
03:00+8всв11625 0.0 103110
06:00+12всв23565 0.0 1032131
09:00+18в23390 0.0 1031557
12:00+21вюв23340 0.0 10311084
15:00+23юв12310 0.0 10301342
18:00+21вюв12440 0.0 102916
21:00+15юв22560 0.0 102911
13 мая, чт
чт1300:00+13вюв22610 0.0 102911
03:00+12юв11665 0.0 103010
06:00+16в23610 0.0 1029109
09:00+22вюв23460 0.0 1029549
12:00+25ююв3438100 0.0 10272174
15:00+25ю343695 0.0 10262344
18:00+23ю25525 0.0 1026138
21:00+17ю226645 0.0 102626
14 мая, пт
пт1400:00+15ююз227231 0.0 102620
03:00+14ю227371 0.0 102616
06:00+17ю256422 0.0 1026176
09:00+21ююз354888 0.0 1025556
12:00+26ююз573599 0.0 10231880
15:00+26ююз57365 0.0 10222228
18:00+23ююз49475 0.0 1021549
21:00+17ю3116637 0.0 1021228